Location: Newark
(54.6833°N, 25.2833°E)
Time: 04:56:07
(UTC+00:00)

Explorer 7 - All Passes

Search period start: 13 November 2019 00:00
Search period end: 23 November 2019 00:00
Orbit: 485 x 680 km, 50.3° (Epoch: 12 November)

Date Brightness Start Highest point End Pass type
(mag) Time Alt. Az. Time Alt. Az. Time Alt. Az.
13 Nov - 00:23:12 10° S 00:25:31 14° SE 00:27:47 10° ESE night (unlit)
13 Nov - 02:01:25 10° SW 02:05:17 34° SSE 02:08:57 10° E visible
13 Nov - 03:41:24 10° WSW 03:45:22 45° S 03:49:08 10° ESE visible
13 Nov - 05:21:54 10° W 05:25:23 28° SSW 05:28:42 10° SE daylight
14 Nov - 00:27:06 10° SSW 00:30:14 19° SSE 00:33:14 10° ESE night (unlit)
14 Nov - 02:06:07 10° WSW 02:10:07 40° SSE 02:13:55 10° E visible
14 Nov - 03:46:18 10° W 03:50:15 43° S 03:53:59 10° ESE visible
14 Nov - 05:26:58 10° W 05:30:08 23° SSW 05:33:12 10° SSE daylight
15 Nov - 00:31:23 10° SSW 00:34:59 25° SSE 00:38:25 10° E visible
15 Nov - 02:10:54 10° WSW 02:14:59 44° S 02:18:50 10° E visible
15 Nov - 03:51:14 10° W 03:55:06 39° SSW 03:58:46 10° SE visible
15 Nov - 05:32:12 10° WSW 05:34:52 17° SSW 05:37:27 10° S daylight
15 Nov - 22:58:27 10° SSE 23:00:06 12° SE 23:01:43 10° ESE night (unlit)
16 Nov - 00:35:53 10° SW 00:39:46 31° SSE 00:43:28 10° E visible
16 Nov - 02:15:44 10° WSW 02:19:51 46° S 02:23:44 10° ESE visible
16 Nov - 03:56:11 10° W 03:59:55 33° SSW 04:03:29 10° SE visible
16 Nov - 05:37:46 10° WSW 05:39:31 13° SW 05:41:16 10° SSW daylight
16 Nov - 23:01:56 10° S 23:04:46 17° SE 23:07:31 10° ESE night (unlit)
17 Nov - 00:40:31 10° SW 00:44:36 37° SSE 00:48:27 10° E visible
17 Nov - 02:20:37 10° WSW 02:24:44 46° S 02:28:36 10° ESE visible
17 Nov - 04:01:11 10° W 04:04:43 27° SSW 04:08:04 10° SE visible
17 Nov - 23:06:01 10° SSW 23:09:29 22° SSE 23:12:49 10° E night (unlit)
18 Nov - 00:45:15 10° WSW 00:49:26 42° S 00:53:23 10° E visible
18 Nov - 02:25:31 10° W 02:29:35 43° S 02:33:25 10° ESE visible
18 Nov - 04:06:17 10° W 04:09:28 22° SSW 04:12:31 10° SSE visible
18 Nov - 23:10:23 10° SSW 23:14:15 28° SSE 23:17:56 10° E night (unlit)
19 Nov - 00:50:03 10° WSW 00:54:18 46° S 00:58:17 10° ESE visible
19 Nov - 02:30:27 10° W 02:34:26 38° SSW 02:38:11 10° SE visible
19 Nov - 04:11:32 10° WSW 04:14:09 16° SW 04:16:40 10° S visible
19 Nov - 21:36:56 10° S 21:39:18 14° SE 21:41:38 10° ESE night (unlit)
19 Nov - 23:14:56 10° SW 23:19:03 34° SSE 23:22:56 10° E night (unlit)
20 Nov - 00:54:54 10° WSW 00:59:10 47° S 01:03:10 10° ESE visible
20 Nov - 02:35:24 10° W 02:39:14 32° SSW 02:42:52 10° SE visible
20 Nov - 04:17:16 10° WSW 04:18:47 12° SW 04:20:18 10° SSW visible
20 Nov - 21:40:44 10° S 21:43:59 19° SSE 21:47:08 10° ESE night (unlit)
20 Nov - 23:19:36 10° SW 23:23:53 40° SSE 23:27:55 10° E night (unlit)
21 Nov - 00:59:47 10° WSW 01:04:02 46° S 01:08:01 10° ESE night (unlit)
21 Nov - 02:40:26 10° W 02:44:01 26° SSW 02:47:25 10° SSE visible
21 Nov - 21:44:56 10° SSW 21:48:43 24° SSE 21:52:20 10° E night (unlit)
21 Nov - 23:24:22 10° WSW 23:28:43 45° S 23:32:50 10° E night (unlit)
22 Nov - 01:04:41 10° W 01:08:54 43° SSW 01:12:50 10° ESE night (unlit)
22 Nov - 02:45:33 10° W 02:48:44 21° SSW 02:51:47 10° SSE visible
22 Nov - 20:12:18 10° SSE 20:13:50 11° SE 20:15:22 10° ESE night (unlit)
22 Nov - 21:49:23 10° SW 21:53:29 31° SSE 21:57:23 10° E night (unlit)
22 Nov - 23:29:11 10° WSW 23:33:35 48° S 23:37:43 10° ESE night (unlit)
